(489656) = 2007 UP53 = 2017 DF49

Discovered at Kitt Peak on 2003-09-16 by Spacewatch.

Orbit

Orbit type: Main Belt

Note: WebGL enabled browser required.

epoch2023-02-25.0
epoch JD2460000.5
perihelion date2022-02-21.25217
perihelion JD2459631.75217
argument of perihelion (°)255.37986
ascending node (°)37.69627
inclination (°)4.78003
eccentricity0.2616537
perihelion distance (AU)1.7952137
Tisserand w.r.t. Jupiter3.5
ΔV w.r.t. Earth (km/sec)8.5
semimajor axis (AU)2.4313978
mean anomaly (°)95.86262
mean daily motion (°/day)0.25996800
aphelion distance (AU)3.068
period (years)3.79
P-vector [x]0.38989595
P-vector [y]-0.80955273
P-vector [z]-0.43886847
Q-vector [x]0.91944808
Q-vector [y]0.36861454
Q-vector [z]0.13688880
absolute magnitude17.79
phase slope0.15
uncertainty0
referenceMPO 731572
observations used170
oppositions11
arc length (days)6999
first opposition used2003
last opposition used2022
residual rms (arc-secs)0.74
perturbers coarse indicatorM-v
perturbers precise indicator003El
first observation date used2003-09-16.0
last observation date used2022-11-14.0
computer nameMPCLINUX
JD of orbit computation2457841.250412
perihelion JD uncertainty (days)2.9426E-05
argument of perihelion uncertainty (°)5.2565E-05
ascending node uncertainty (°)5.1703E-05
inclination uncertainty (°)4.3961E-06
eccentricity uncertainty 4.7877E-08
perihelion distance uncertainty (AU)1.2199E-07
Minimum Orbit Intersection Distances (in AU)
for orbit epoch: 2460000.5, reference: E2022-X59
Mercury1.34368
Venus1.0685
Earth0.78576
Mars0.37558
Jupiter2.14915
Saturn6.03715
Uranus15.5525
Neptune27.1082

Observations

178 total observations over interval: 2003 09 16.43941 – 2022 11 14.339892
These data are available for download (format description).

Date (UT) J2000 RA J2000 Dec Magn Location Ref
2003 09 16.43941 01 44 32.76 +06 54 32.1 21.0 V 691 – Steward Observatory, Kitt Peak-Spacewatch MPS 775904
2003 09 16.46683 01 44 31.61 +06 54 28.5 21.4 V 691 – Steward Observatory, Kitt Peak-Spacewatch MPS 775904
2003 09 16.49453 01 44 30.47 +06 54 25.6 21.2 V 691 – Steward Observatory, Kitt Peak-Spacewatch MPS 775904
2003 10 18.19579 01 14 26.78 +05 15 57.4 21.1 V 691 – Steward Observatory, Kitt Peak-Spacewatch MPS 775904
2003 10 18.22358 01 14 25.01 +05 15 52.5 20.9 V 691 – Steward Observatory, Kitt Peak-Spacewatch MPS 775904
2003 10 18.25109 01 14 23.26 +05 15 47.1 20.9 V 691 – Steward Observatory, Kitt Peak-Spacewatch MPS 775904
2006 03 23.24997 13 18 23.79 -04 34 07.9 21.0 V 691 – Steward Observatory, Kitt Peak-Spacewatch MPS 775904
2006 03 23.26727 13 18 22.90 -04 34 03.2 20.9 V 691 – Steward Observatory, Kitt Peak-Spacewatch MPS 775904
2006 03 23.28458 13 18 22.04 -04 34 00.4 21.4 V 691 – Steward Observatory, Kitt Peak-Spacewatch MPS 775904
2007 10 30.24293 03 07 22.71 +18 28 52.0 20.9 V 691 – Steward Observatory, Kitt Peak-Spacewatch MPS 223942
2007 10 30.26056 03 07 21.54 +18 28 49.9 20.8 V 691 – Steward Observatory, Kitt Peak-Spacewatch MPS 223942
2007 10 30.27915 03 07 20.30 +18 28 47.0 21.0 V 691 – Steward Observatory, Kitt Peak-Spacewatch MPS 223942
2007 10 30.42446 03 07 10.52 +18 28 26.3 21.1 V G96 – Mt. Lemmon Survey MPS 225108
2007 10 30.43734 03 07 09.62 +18 28 24.6 21.3 V G96 – Mt. Lemmon Survey MPS 225108
2007 10 30.45034 03 07 08.79 +18 28 23.0 20.4 V G96 – Mt. Lemmon Survey MPS 225108
2007 10 30.46317 03 07 07.93 +18 28 21.2 20.6 V G96 – Mt. Lemmon Survey MPS 225108
2007 10 31.19389 03 06 20.47 +18 26 37.9   691 – Steward Observatory, Kitt Peak-Spacewatch MPS 223942
2007 10 31.21151 03 06 19.27 +18 26 35.8   691 – Steward Observatory, Kitt Peak-Spacewatch MPS 223942
2007 10 31.22914 03 06 18.11 +18 26 33.0   691 – Steward Observatory, Kitt Peak-Spacewatch MPS 223942
2007 11 03.26931 03 02 56.11 +18 19 01.4 20.1 V G96 – Mt. Lemmon Survey MPS 225108
2007 11 03.28076 03 02 55.32 +18 18 59.9 20.2 V G96 – Mt. Lemmon Survey MPS 225108
2007 11 03.29212 03 02 54.52 +18 18 58.3 20.2 V G96 – Mt. Lemmon Survey MPS 225108
2007 11 03.30375 03 02 53.73 +18 18 56.4 20.2 V G96 – Mt. Lemmon Survey MPS 225108
2007 11 04.17400 03 01 55.63 +18 16 39.8 20.9 V G96 – Mt. Lemmon Survey MPS 229132
2007 11 04.17837 03 01 55.30 +18 16 38.6 20.7 V G96 – Mt. Lemmon Survey MPS 229132
2007 11 04.18388 03 01 54.98 +18 16 38.0 21.1 V G96 – Mt. Lemmon Survey MPS 229132
2007 11 04.18818 03 01 54.66 +18 16 37.5 20.7 V G96 – Mt. Lemmon Survey MPS 229132
2007 11 18.15514 02 46 40.40 +17 37 05.7 21.4 V G96 – Mt. Lemmon Survey MPS 309502
2007 11 18.16060 02 46 40.08 +17 37 04.2 21.1 V G96 – Mt. Lemmon Survey MPS 309502
2007 11 18.16601 02 46 39.72 +17 37 04.0 21.3 V G96 – Mt. Lemmon Survey MPS 309502
2007 11 18.17143 02 46 39.36 +17 37 02.8 20.8 V G96 – Mt. Lemmon Survey MPS 309502
2010 05 07.31637 15 15 01.76 -19 59 26.6 19.5 V G96 – Mt. Lemmon Survey MPS 775904
2010 05 07.31876 15 15 01.62 -19 59 26.5 19.5 V G96 – Mt. Lemmon Survey MPS 775904
2010 05 07.32112 15 15 01.47 -19 59 26.6 19.4 V G96 – Mt. Lemmon Survey MPS 775904
2010 05 07.32352 15 15 01.29 -19 59 26.6 19.4 V G96 – Mt. Lemmon Survey MPS 775904
2011 11 26.14126 04 20 29.58 +25 03 09.9 20.7 V G96 – Mt. Lemmon Survey MPS 775904
2011 11 26.14853 04 20 29.00 +25 03 09.2 20.9 V G96 – Mt. Lemmon Survey MPS 775904
2011 11 26.15583 04 20 28.60 +25 03 09.1 21.1 V G96 – Mt. Lemmon Survey MPS 775904
2011 11 26.16348 04 20 28.03 +25 03 08.6 21.6 V G96 – Mt. Lemmon Survey MPS 775904
2014 05 30.47288 19 33 15.499 -29 00 32.12 19.9 w F51 – Pan-STARRS 1, Haleakala MPS 775904
2014 05 30.48286 19 33 15.678 -29 00 35.22 19.9 w F51 – Pan-STARRS 1, Haleakala MPS 775904
2014 05 30.49285 19 33 15.847 -29 00 38.31 19.9 w F51 – Pan-STARRS 1, Haleakala MPS 775904
2014 05 30.50288 19 33 16.027 -29 00 41.46 19.9 w F51 – Pan-STARRS 1, Haleakala MPS 775904
2014 06 21.45894 19 31 37.154 -31 05 10.18 18.9 i F51 – Pan-STARRS 1, Haleakala MPS 775904
2014 06 21.47046 19 31 36.766 -31 05 14.35 18.9 i F51 – Pan-STARRS 1, Haleakala MPS 775904
2014 06 21.48197 19 31 36.374 -31 05 18.31 18.8 i F51 – Pan-STARRS 1, Haleakala MPS 775904
2014 06 21.49351 19 31 35.987 -31 05 22.40 18.9 i F51 – Pan-STARRS 1, Haleakala MPS 775904
2014 08 23.30671 19 03 14.754 -31 44 02.05 19.8 w F51 – Pan-STARRS 1, Haleakala MPS 775904
2014 08 23.31803 19 03 15.040 -31 43 59.99 20.3 w F51 – Pan-STARRS 1, Haleakala MPS 775904
2014 08 23.34068 19 03 15.567 -31 43 52.67 19.8 w F51 – Pan-STARRS 1, Haleakala MPS 775904
2014 09 19.23611 19 28 30.731 -29 11 09.83 20.5 w F51 – Pan-STARRS 1, Haleakala MPS 775904
2014 09 19.24757 19 28 31.612 -29 11 05.33 20.5 w F51 – Pan-STARRS 1, Haleakala MPS 775904
2014 09 19.25904 19 28 32.494 -29 11 00.77 20.5 w F51 – Pan-STARRS 1, Haleakala MPS 775904
2015 12 13.36624 05 34 29.965 +28 26 38.75 21.7 w F51 – Pan-STARRS 1, Haleakala MPS 775904
2015 12 13.37743 05 34 29.182 +28 26 38.98 21.5 w F51 – Pan-STARRS 1, Haleakala MPS 775904
2015 12 13.38860 05 34 28.371 +28 26 39.10 21.5 w F51 – Pan-STARRS 1, Haleakala MPS 775904
2015 12 13.39984 05 34 27.589 +28 26 39.43 21.7 w F51 – Pan-STARRS 1, Haleakala MPS 775904
2017 02 21.32213 10 44 38.61 +15 00 48.8 21.7 V G96 – Mt. Lemmon Survey MPS 772227
2017 02 21.33580 10 44 37.89 +15 00 52.0 21.1 V G96 – Mt. Lemmon Survey MPS 772227
2017 02 21.34749 10 44 37.12 +15 00 55.9 21.0 V G96 – Mt. Lemmon Survey MPS 772227
2017 02 24.51647 10 41 29.024 +15 18 14.11 21.4 w F51 – Pan-STARRS 1, Haleakala MPS 772227
2017 02 24.52960 10 41 28.200 +15 18 18.40 21.6 w F51 – Pan-STARRS 1, Haleakala MPS 772227
2017 02 24.54285 10 41 27.387 +15 18 22.43 21.5 w F51 – Pan-STARRS 1, Haleakala MPS 772227
2017 03 28.25330 10 12 53.151 +17 10 56.27 21.7 w F51 – Pan-STARRS 1, Haleakala MPS 781929
2017 03 28.26359 10 12 52.772 +17 10 57.33 22.0 w F51 – Pan-STARRS 1, Haleakala MPS 781929
2017 03 28.27392 10 12 52.308 +17 10 58.14 22.1 w F51 – Pan-STARRS 1, Haleakala MPS 781929
2018 08 11.54952 23 49 13.156 -10 05 33.91 19.8 w F51 – Pan-STARRS 1, Haleakala MPS 910956
2018 08 11.56120 23 49 12.867 -10 05 35.86 19.9 w F51 – Pan-STARRS 1, Haleakala MPS 910956
2018 08 11.57291 23 49 12.576 -10 05 37.78 19.8 w F51 – Pan-STARRS 1, Haleakala MPS 910956
2018 08 11.58458 23 49 12.288 -10 05 39.67 19.8 w F51 – Pan-STARRS 1, Haleakala MPS 910956
2018 09 04.26995 23 32 36.46 -11 27 18.2 19.9 G 703 – Catalina Sky Survey MPS 914540
2018 09 04.27494 23 32 36.23 -11 27 18.5 19.2 G 703 – Catalina Sky Survey MPS 914540
2018 09 04.27993 23 32 35.92 -11 27 19.8 19.5 G 703 – Catalina Sky Survey MPS 914540
2018 09 04.28491 23 32 35.68 -11 27 21.2 19.8 G 703 – Catalina Sky Survey MPS 914540
2018 09 07.25434 23 29 45.93 -11 36 51.6 20.3 G 703 – Catalina Sky Survey MPS 914540
2018 09 07.25962 23 29 45.60 -11 36 53.5 19.8 G 703 – Catalina Sky Survey MPS 914540
2018 09 07.26490 23 29 45.24 -11 36 54.1 19.8 G 703 – Catalina Sky Survey MPS 914540
2018 09 07.27018 23 29 44.96 -11 36 56.6 19.5 G 703 – Catalina Sky Survey MPS 914540
2018 09 07.31906 23 29 41.97 -11 37 04.3 19.5 G G96 – Mt. Lemmon Survey MPS 914540
2018 09 07.32530 23 29 41.59 -11 37 05.4 19.5 G G96 – Mt. Lemmon Survey MPS 914540
2018 09 07.33266 23 29 41.16 -11 37 06.9 19.6 G G96 – Mt. Lemmon Survey MPS 914540
2018 09 07.33781 23 29 40.83 -11 37 07.8 19.6 G G96 – Mt. Lemmon Survey MPS 914540
2018 09 08.66594 23 28 24.09 -11 41 04.9 19.5 R D29 – Purple Mountain Observatory, XuYi Station MPS 918976
2018 09 08.68274 23 28 23.06 -11 41 07.5 19.6 R D29 – Purple Mountain Observatory, XuYi Station MPS 918976
2018 09 08.69953 23 28 22.04 -11 41 10.7 18.9 R D29 – Purple Mountain Observatory, XuYi Station MPS 918976
2018 09 10.24355 23 26 52.82 -11 45 30.4 19.2 G 703 – Catalina Sky Survey MPS 918976
2018 09 10.24881 23 26 52.49 -11 45 31.1 19.2 G 703 – Catalina Sky Survey MPS 918976
2018 09 10.25406 23 26 52.27 -11 45 31.0 18.8 G 703 – Catalina Sky Survey MPS 918976
2018 09 10.25931 23 26 51.98 -11 45 30.7 19.1 G 703 – Catalina Sky Survey MPS 1431528
2018 09 13.22646 23 24 00.46 -11 52 57.1 19.9 G 703 – Catalina Sky Survey MPS 918976
